Regional Weather Roundup
Issued by NWS

Home | Current Version | Previous Version | Text Only | Print | Product List | Glossary On
Versions: 1 2 3 4 5 6 7 8 9 10 11 12 13 14 15 16 17 18 19 20 21 22 23 24 25 26 27
000
ASUS45 KPSR 310610
RWRAZ

ARIZONA HOURLY REGIONAL WEATHER ROUNDUP
NATIONAL WEATHER SERVICE PHOENIX AZ
1100 PM MST FRI JUL 30 2021

NOTE: FAIR INDICATES FEW OR NO CLOUDS BELOW 12,000 FEET WITH NO
SIGNIFICANT WEATHER AND/OR OBSTRUCTIONS TO VISIBILITY.

AZZ001>003-036-310700-
NORTHWEST ARIZONA

CITY           SKY/WX    TMP DP  RH WIND       PRES   REMARKS
BULLHEAD CITY  CLEAR     93  61  33 CALM      29.90S
KINGMAN        PTCLDY    73  60  63 S6        30.13R
6HR MIN TEMP:  72; 6HR MAX TEMP:  81;

$$

AZZ004>008-015-016-018-310700-
NORTH CENTRAL ARIZONA

CITY           SKY/WX    TMP DP  RH WIND       PRES   REMARKS
GRAND CANYON   MOCLDY    56  55  97 CALM      30.36S
6HR MIN TEMP:  54; 6HR MAX TEMP:  66;

WILLIAMS       CLOUDY    59  55  88 S7        30.37S
PRESCOTT       PTCLDY    66  61  84 S6        30.25S
6HR MIN TEMP:  66; 6HR MAX TEMP:  78;

FLAGSTAFF      PTCLDY    55  54  96 CALM      30.39S
6HR MIN TEMP:  55; 6HR MAX TEMP:  66;

PAYSON         PTCLDY    68  59  73 NE3       30.27R
PAGE           CLOUDY    81  56  42 CALM      30.17S
6HR MIN TEMP:  81; 6HR MAX TEMP:  94;

$$

AZZ009>014-017-310700-
NORTHEAST ARIZONA

CITY           SKY/WX    TMP DP  RH WIND       PRES   REMARKS
WINSLOW        PTCLDY    71  58  63 W7        30.24S
6HR MIN TEMP:  71; 6HR MAX TEMP:  82;

SAINT JOHNS    CLOUDY    65  61  87 CALM      30.29S
6HR MIN TEMP:  64; 6HR MAX TEMP:  75;

WINDOW ROCK    PTCLDY    63  52  67 CALM      30.38R
6HR MIN TEMP:  62; 6HR MAX TEMP:  82; 6HR PCP: TRACE;

SHOW LOW       PTCLDY    63  55  77 S8        30.36S
$$

AZZ540-542>544-546-548-310700-
GREATER PHOENIX AREA

CITY           SKY/WX    TMP DP  RH WIND       PRES   REMARKS
PHOENIX        CLOUDY    89  64  43 W10       29.96R THUNDER
6HR MIN TEMP:  89; 6HR MAX TEMP: 104;

BUCKEYE          N/A     82  66  57 W7        29.98R
LUKE AFB       CLOUDY    87  66  50 S17       29.94R
6HR MIN TEMP:  86; 6HR MAX TEMP: 101;

DEER VALLEY    CLOUDY    82  64  54 CALM      29.99R
6HR MIN TEMP:  81; 6HR MAX TEMP: 101; 6HR PCP: TRACE;

SCOTTSDALE     CLOUDY    84  63  49 W8        30.01R
6HR MIN TEMP:  82; 6HR MAX TEMP: 101; 6HR PCP: TRACE;

MESA-FALCON    CLOUDY    84  65  52 VRB6      29.99R
6HR MIN TEMP:  84; 6HR MAX TEMP: 101;

MESA-GATEWAY   MOCLDY    88  66  48 S10       30.03R
$$

AZZ539-553-310700-
SOUTHWEST MARICOPA COUNTY AND PINAL COUNTY

CITY           SKY/WX    TMP DP  RH WIND       PRES   REMARKS
CASA GRANDE    CLOUDY    78  69  73 S21G26    30.06R
6HR MIN TEMP:  78; 6HR MAX TEMP: 100;

GILA BEND      FAIR      80  73  80 S7        29.97R
6HR MIN TEMP:  79; 6HR MAX TEMP: 101; 6HR PCP:  0.01;

$$

AZZ503-504-507>509-310700-
SOUTHEAST ARIZONA

CITY           SKY/WX    TMP DP  RH WIND       PRES   REMARKS
TUCSON         LGT RAIN  72  69  90 S6        30.12R
6HR MIN TEMP:  71; 6HR MAX TEMP:  91; 6HR PCP:  0.67;

DAVIS-MONTHAN  CLOUDY    72  68  88 CALM      30.10R
6HR MIN TEMP:  69; 6HR MAX TEMP:  90; 6HR PCP:  0.10;

NOGALES        MOCLDY    68  67  96 CALM      30.17R
6HR MIN TEMP:  68; 6HR MAX TEMP:  72; 6HR PCP: TRACE;

SIERRA VISTA   PTCLDY    70  60  71 NW5       30.22S
6HR MIN TEMP:  70; 6HR MAX TEMP:  83;

SAFFORD        PTCLDY    76  67  73 E3        30.09F
6HR MIN TEMP:  75; 6HR MAX TEMP:  91; 6HR PCP:  0.03;

$$

AZZ532-310700-
SOUTHWEST ARIZONA

CITY           SKY/WX    TMP DP  RH WIND       PRES   REMARKS
YUMA           CLOUDY    83  71  67 E13       29.90F
6HR MIN TEMP:  73; 6HR MAX TEMP:  95; 6HR PCP:  0.33;

$$

CAZ041-043-047-048-061-525>527-560>570-310700-
SOUTHERN CALIFORNIA

CITY           SKY/WX    TMP DP  RH WIND       PRES   REMARKS
DOWNTOWN L.A.  PTCLDY    66  59  78 W3        29.99F
6HR MIN TEMP:  66; 6HR MAX TEMP:  75;

L.A. AIRPORT   MOCLDY    63  60  90 W7        29.99F
6HR MIN TEMP:  62; 6HR MAX TEMP:  69;

SAN DIEGO      MOCLDY    69  63  81 NW6       30.01S
6HR MIN TEMP:  69; 6HR MAX TEMP:  75;

BURBANK        PTCLDY    68  58  70 VRB5      29.99S
6HR MIN TEMP:  68; 6HR MAX TEMP:  88;

ONTARIO        MOCLDY    77  56  48 W5        29.99F
6HR MIN TEMP:  77; 6HR MAX TEMP:  96;

RIVERSIDE      MOCLDY    75  57  53 W5        29.99F
6HR MIN TEMP:  75; 6HR MAX TEMP:  92;

PALM SPRINGS   MOCLDY    88  67  49 S3        29.95S
6HR MIN TEMP:  88; 6HR MAX TEMP:  99;

EL CENTRO NAS  PTCLDY    84  65  52 W8        29.91S
6HR MIN TEMP:  84; 6HR MAX TEMP:  92;

IMPERIAL       PTCLDY    82  69  64 W7        29.88S
6HR MIN TEMP:  82; 6HR MAX TEMP:  90;

BLYTHE         MOCLDY    86  66  51 SW14      29.90F
6HR MIN TEMP:  84; 6HR MAX TEMP:  97;

NEEDLES        MOCLDY    94  57  28 W6        29.92S
6HR MIN TEMP:  94; 6HR MAX TEMP: 103;

$$

NVZ020-UTZ003-310700-
SOUTHERN NEVADA-UTAH

CITY           SKY/WX    TMP DP  RH WIND       PRES   REMARKS
LAS VEGAS      MOCLDY    85  59  41 S6        30.01S
6HR MIN TEMP:  85; 6HR MAX TEMP:  90;

SALT LAKE CITY MOCLDY    78  60  53 CALM      30.15S
6HR MIN TEMP:  77; 6HR MAX TEMP:  88;

$$

NMZ009-TXZ055-310700-
NEW MEXICO-WEST TEXAS

CITY           SKY/WX    TMP DP  RH WIND       PRES   REMARKS
ALBUQUERQUE    PTCLDY    74  48  39 SE8       30.27S
6HR MIN TEMP:  73; 6HR MAX TEMP:  88;

EL PASO        CLOUDY    81  52  36 CALM      30.17F
6HR MIN TEMP:  80; 6HR MAX TEMP:  91;

$$


........................KEY........................
SKY/WX - SKY CONDITION/WEATHER
TMP    - TEMPERATURE IN FAHRENHEIT
DP     - DEW POINT IN FAHRENHEIT
RH     - RELATIVE HUMIDITY IN PERCENT
WIND   - DIRECTION AND SPEED IN MILES PER HOUR (MPH)
VRB    - VARIABLE WIND DIRECTION
PRES   - MEAN SEA LEVEL PRESSURE IN INCHES OF MERCURY
         F - FALLING PRESSURE   R - RISING PRESSURE
         S - STEADY PRESSURE
VSB    - VISIBILITY IN MILES
HX     - HEAT INDEX IN FAHRENHEIT
WCI    - WIND CHILL INDEX IN FAHRENHEIT
TC     - TEMPERATURE IN CELSIUS WHICH IS ALSO KNOWN AS
         TEMPERATURE IN CENTIGRADE
AFB    - AIR FORCE BASE
         LUKE AFB IS LUKE AIR FORCE BASE
         DAVIS-MONTHAN IS DAVIS-MONTHAN AIR FORCE BASE
NAS    - NAVAL AIR STATION
         EL CENTRO NAS IS EL CENTRO NAVAL AIR STATION
N/A    - NOT AVAILABLE




USA.gov is the U.S. government's official web portal to all federal, state and local government web resources and services.